EW6320 Weather Reports


Display with metric or nautical units.
time (UTC)temp
F
wind
direction
speed
MPH
gust
MPH
rain 1hr
in
rain 24hr
in
rain mn
in
humidity
%
barometer
mb
20260905234625 95 309 0.0 2.0 0.00 0.00 0.00 52 1011.2
20260905234123 95 309 1.0 3.0 0.00 0.00 0.00 52 1011.2
20260905233623 95 309 1.0 3.0 0.00 0.00 0.00 51 1011.1
20260905233123 96 324 1.0 4.0 0.00 0.00 0.00 51 1011.1
20260905232623 96 316 2.0 4.0 0.00 0.00 0.00 51 1011.1
20260905232122 96 298 1.0 4.0 0.00 0.00 0.00 50 1011.1
20260905231621 97 281 2.0 3.0 0.00 0.00 0.00 50 1011.1
20260905231114 97 321 1.0 3.0 0.00 0.00 0.00 50 1011.0
20260905230608 97 317 1.0 3.0 0.00 0.00 0.00 50 1011.0
20260905230109 97 335 2.0 4.0 0.00 0.00 0.00 48 1011.1
20260905225609 97 312 2.0 4.0 0.00 0.00 0.00 48 1011.1
20260905225105 97 13 2.0 9.0 0.00 0.00 0.00 48 1011.1
20260905224605 98 306 2.0 9.0 0.00 0.00 0.00 48 1011.0
20260905224101 98 300 3.0 9.0 0.00 0.00 0.00 47 1011.0
20260905223601 98 323 4.0 9.0 0.00 0.00 0.00 46 1010.9
20260905223100 99 324 3.0 9.0 0.00 0.00 0.00 46 1010.9
20260905222601 99 342 2.0 6.0 0.00 0.00 0.00 47 1010.9
20260905222057 99 330 3.0 10.0 0.00 0.00 0.00 46 1010.9
20260905221558 99 311 4.0 11.0 0.00 0.00 0.00 45 1011.0
20260905221053 100 324 4.0 12.0 0.00 0.00 0.00 46 1010.9
20260905220553 99 321 4.0 12.0 0.00 0.00 0.00 45 1010.8
20260905220052 100 321 4.0 10.0 0.00 0.00 0.00 46 1011.0
20260905215553 101 291 4.0 12.0 0.00 0.00 0.00 43 1010.8
20260905215048 101 32 5.0 12.0 0.00 0.00 0.00 42 1010.7
20260905214818 101 309 6.0 11.0 0.00 0.00 0.00 41 1010.7
20260905214045 101 314 5.0 13.0 0.00 0.00 0.00 41 1010.8
20260905213545 101 273 4.0 13.0 0.00 0.00 0.00 40 1010.8
20260905213045 102 314 4.0 13.0 0.00 0.00 0.00 40 1010.7
20260905212544 102 316 3.0 9.0 0.00 0.00 0.00 40 1010.8
20260905212041 102 315 4.0 13.0 0.00 0.00 0.00 39 1010.9
20260905211541 102 309 4.0 13.0 0.00 0.00 0.00 40 1010.9
20260905211038 102 298 3.0 8.0 0.00 0.00 0.00 41 1010.9
20260905210539 102 309 3.0 8.0 0.00 0.00 0.00 42 1010.9
20260905210043 101 265 3.0 8.0 0.00 0.00 0.00 42 1011.0
20260905205534 101 265 2.0 7.0 0.00 0.00 0.00 42 1011.1
20260905205306 100 19 2.0 7.0 0.00 0.00 0.00 44 1011.2
20260905204537 100 346 2.0 7.0 0.00 0.00 0.00 45 1011.2
20260905204035 99 316 4.0 11.0 0.00 0.00 0.00 45 1011.2
20260905203532 99 24 6.0 11.0 0.00 0.00 0.00 43 1011.2
20260905203032 100 302 5.0 13.0 0.00 0.00 0.00 42 1011.3
20260905202532 101 261 4.0 13.0 0.00 0.00 0.00 41 1011.3
20260905202033 101 313 5.0 12.0 0.00 0.00 0.00 42 1011.3
20260905201533 101 323 5.0 12.0 0.00 0.00 0.00 43 1011.4
20260905201036 100 292 4.0 11.0 0.00 0.00 0.00 42 1011.5
20260905200529 101 307 4.0 9.0 0.00 0.00 0.00 42 1011.4
20260905200030 101 227 3.0 9.0 0.00 0.00 0.00 42 1011.4
20260905195753 101 276 3.0 9.0 0.00 0.00 0.00 43 1011.5
20260905195027 100 278 3.0 9.0 0.00 0.00 0.00 44 1011.5
20260905195018 100 323 5.0 11.0 0.00 0.00 0.00 44 1011.5
20260905194022 99 250 4.0 11.0 0.00 0.00 0.00 45 1011.6
20260905193522 99 286 4.0 9.0 0.00 0.00 0.00 45 1011.7
20260905193240 99 300 4.0 9.0 0.00 0.00 0.00 44 1011.8
20260905192521 100 295 3.0 9.0 0.00 0.00 0.00 44 1011.8
20260905192012 101 315 4.0 13.0 0.00 0.00 0.00 43 1011.9
20260905191515 100 316 6.0 13.0 0.00 0.00 0.00 44 1012.1
20260905191008 100 269 6.0 13.0 0.00 0.00 0.00 42 1012.2
20260905190733 101 261 5.0 13.0 0.00 0.00 0.00 43 1012.2
20260905190004 100 333 6.0 12.0 0.00 0.00 0.00 43 1012.3
20260905185508 100 303 6.0 12.0 0.00 0.00 0.00 42 1012.3
20260905184958 100 286 5.0 12.0 0.00 0.00 0.00 43 1012.4
20260905184456 100 296 5.0 11.0 0.00 0.00 0.00 44 1012.4
20260905183957 100 275 3.0 9.0 0.00 0.00 0.00 46 1012.5
20260905183456 99 208 3.0 8.0 0.00 0.00 0.00 47 1012.6
20260905182952 99 287 3.0 12.0 0.00 0.00 0.00 47 1012.7
20260905182450 98 346 3.0 12.0 0.00 0.00 0.00 48 1012.7
20260905181949 98 104 5.0 12.0 0.00 0.00 0.00 50 1012.7
20260905181705 98 309 4.0 12.0 0.00 0.00 0.00 49 1012.7
20260905180944 98 277 2.0 8.0 0.00 0.00 0.00 49 1012.7
20260905180444 98 300 3.0 8.0 0.00 0.00 0.00 51 1012.8
20260905175940 97 316 5.0 10.0 0.00 0.00 0.00 51 1012.8
20260905175656 97 296 4.0 10.0 0.00 0.00 0.00 51 1012.9
20260905174938 97 315 3.0 8.0 0.00 0.00 0.00 52 1012.9
20260905174434 96 355 3.0 8.0 0.00 0.00 0.00 51 1012.9
20260905173932 97 304 3.0 8.0 0.00 0.00 0.00 53 1012.9
20260905173432 96 301 3.0 8.0 0.00 0.00 0.00 51 1013.0
20260905172928 97 316 2.0 6.0 0.00 0.00 0.00 51 1012.8
20260905172426 96 315 3.0 7.0 0.00 0.00 0.00 53 1012.9
20260905171929 96 293 2.0 7.0 0.00 0.00 0.00 52 1013.0
20260905171424 98 275 2.0 7.0 0.00 0.00 0.00 52 1013.0
20260905170923 97 286 3.0 7.0 0.00 0.00 0.00 52 1013.2
20260905170636 96 297 3.0 7.0 0.00 0.00 0.00 53 1013.2
20260905165918 96 310 3.0 7.0 0.00 0.00 0.00 54 1013.4
20260905165636 96 240 3.0 7.0 0.00 0.00 0.00 53 1013.5
20260905164912 95 318 3.0 7.0 0.00 0.00 0.00 53 1013.6
20260905164412 95 240 3.0 7.0 0.00 0.00 0.00 53 1013.7
20260905163911 95 173 3.0 8.0 0.00 0.00 0.00 53 1013.8
20260905163629 95 250 3.0 8.0 0.00 0.00 0.00 54 1013.8
20260905162906 94 296 4.0 10.0 0.00 0.00 0.00 55 1013.8
20260905162406 94 248 4.0 10.0 0.00 0.00 0.00 56 1013.7
20260905162121 94 309 3.0 7.0 0.00 0.00 0.00 54 1013.7
20260905161359 93 320 3.0 7.0 0.00 0.00 0.00 56 1013.7
20260905160900 93 287 4.0 7.0 0.00 0.00 0.00 55 1013.9
20260905160613 93 307 4.0 8.0 0.00 0.00 0.00 56 1013.9
20260905155854 92 258 4.0 8.0 0.00 0.00 0.00 56 1013.9
20260905155354 92 230 4.0 8.0 0.00 0.00 0.00 56 1013.8
20260905154852 92 309 4.0 8.0 0.00 0.00 0.00 56 1013.9
20260905154352 93 306 3.0 8.0 0.00 0.00 0.00 56 1013.9
20260905154339 92 265 3.0 8.0 0.00 0.00 0.00 57 1013.9
20260905153352 92 296 4.0 8.0 0.00 0.00 0.00 57 1014.0
20260905152853 91 314 3.0 7.0 0.00 0.00 0.00 56 1014.0
20260905152346 91 259 3.0 6.0 0.00 0.00 0.00 58 1013.9
20260905151846 90 254 4.0 7.0 0.00 0.00 0.00 57 1014.0
20260905151346 90 286 4.0 8.0 0.00 0.00 0.00 58 1014.0
20260905150839 90 244 4.0 8.0 0.00 0.00 0.00 57 1013.8
20260905150340 90 250 4.0 8.0 0.00 0.00 0.00 58 1013.9
20260905145836 90 302 3.0 8.0 0.00 0.00 0.00 58 1014.0
20260905145336 89 300 3.0 7.0 0.00 0.00 0.00 60 1013.9
20260905144836 89 240 3.0 7.0 0.00 0.00 0.00 61 1013.9
20260905144335 89 275 3.0 7.0 0.00 0.00 0.00 61 1013.9
20260905143836 89 240 4.0 8.0 0.00 0.00 0.00 61 1013.9
20260905143330 89 290 4.0 9.0 0.00 0.00 0.00 61 1013.9
20260905142829 89 299 4.0 9.0 0.00 0.00 0.00 61 1013.9
20260905142329 88 300 3.0 8.0 0.00 0.00 0.00 62 1013.9
20260905141830 88 300 3.0 8.0 0.00 0.00 0.00 63 1013.9
20260905141329 87 287 3.0 5.0 0.00 0.00 0.00 64 1013.9
20260905140828 87 284 2.0 5.0 0.00 0.00 0.00 64 1013.9
20260905140326 87 257 2.0 4.0 0.00 0.00 0.00 65 1014.0
20260905135820 87 248 2.0 5.0 0.00 0.00 0.00 64 1014.2
20260905135320 86 296 2.0 5.0 0.00 0.00 0.00 65 1014.0
20260905134819 86 275 2.0 4.0 0.00 0.00 0.00 67 1014.0
20260905134320 86 261 1.0 4.0 0.00 0.00 0.00 67 1014.0
20260905134048 85 258 1.0 3.0 0.00 0.00 0.00 68 1014.0
20260905133317 85 236 1.0 3.0 0.00 0.00 0.00 69 1014.0
20260905132818 84 244 1.0 3.0 0.00 0.00 0.00 70 1014.0
20260905132317 84 238 0.0 3.0 0.00 0.00 0.00 71 1014.0
20260905131817 83 217 0.0 0.0 0.00 0.00 0.00 71 1013.9
20260905131315 83 144 0.0 0.0 0.00 0.00 0.00 72 1014.0
20260905131300 82 144 0.0 0.0 0.00 0.00 0.00 72 1014.0
20260905130314 82 144 0.0 0.0 0.00 0.00 0.00 73 1013.9
20260905125809 81 93 0.0 0.0 0.00 0.00 0.00 75 1013.9
20260905125531 81 93 0.0 0.0 0.00 0.00 0.00 75 1013.9
20260905124809 80 93 0.0 0.0 0.00 0.00 0.00 76 1013.8
20260905124310 79 93 0.0 0.0 0.00 0.00 0.00 77 1013.7
20260905123805 79 93 0.0 0.0 0.00 0.00 0.00 78 1013.7
20260905123525 78 93 0.0 0.0 0.00 0.00 0.00 78 1013.7
20260905122802 77 93 0.0 0.0 0.00 0.00 0.00 80 1013.8
20260905122302 77 93 0.0 0.0 0.00 0.00 0.00 81 1013.8
20260905121801 76 93 0.0 0.0 0.00 0.00 0.00 82 1013.7
20260905121301 76 93 0.0 0.0 0.00 0.00 0.00 83 1013.6
20260905121242 75 93 0.0 0.0 0.00 0.00 0.00 83 1013.6
20260905120517 75 93 0.0 0.0 0.00 0.00 0.00 83 1013.5
20260905115754 75 109 0.0 0.0 0.00 0.00 0.00 83 1013.5
20260905115254 75 115 0.0 0.0 0.00 0.00 0.00 83 1013.5
20260905115238 75 115 0.0 0.0 0.00 0.00 0.00 82 1013.5
20260905114254 76 115 0.0 0.0 0.00 0.00 0.00 82 1013.5
20260905113752 76 156 0.0 0.0 0.00 0.00 0.00 81 1013.4
20260905113251 76 156 0.0 0.0 0.00 0.00 0.00 81 1013.3
20260905112748 76 156 0.0 0.0 0.00 0.00 0.00 80 1013.4
20260905112250 76 156 0.0 0.0 0.00 0.00 0.00 80 1013.4
20260905111742 76 156 0.0 0.0 0.00 0.00 0.00 80 1013.5
20260905111242 77 156 0.0 0.0 0.00 0.00 0.00 79 1013.3
20260905110743 77 156 0.0 0.0 0.00 0.00 0.00 78 1013.4
20260905110451 77 156 0.0 0.0 0.00 0.00 0.00 79 1013.3
20260905105733 76 156 0.0 0.0 0.00 0.00 0.00 79 1013.3
20260905105235 76 156 0.0 0.0 0.00 0.00 0.00 80 1013.3
20260905104734 76 156 0.0 0.0 0.00 0.00 0.00 80 1013.3
20260905104233 76 156 0.0 0.0 0.00 0.00 0.00 80 1013.3
20260905103729 76 156 0.0 0.0 0.00 0.00 0.00 81 1013.2
20260905103228 76 156 0.0 0.0 0.00 0.00 0.00 81 1013.3
20260905102731 76 156 0.0 0.0 0.00 0.00 0.00 82 1013.3
20260905102221 76 156 0.0 0.0 0.00 0.00 0.00 82 1013.3
20260905101722 76 156 0.0 0.0 0.00 0.00 0.00 81 1013.3
20260905101223 76 156 0.0 0.0 0.00 0.00 0.00 80 1013.3
20260905100714 77 253 0.0 0.0 0.00 0.00 0.00 80 1013.3
20260905100432 76 253 0.0 0.0 0.00 0.00 0.00 81 1013.3
20260905095715 76 253 0.0 0.0 0.00 0.00 0.00 81 1013.2
20260905095209 76 253 0.0 0.0 0.00 0.00 0.00 81 1013.2
20260905094936 76 253 0.0 0.0 0.00 0.00 0.00 80 1013.2
20260905094213 77 253 0.0 0.0 0.00 0.00 0.00 80 1013.2
20260905094150 77 253 0.0 0.0 0.00 0.00 0.00 79 1013.2
20260905093209 77 253 0.0 0.0 0.00 0.00 0.00 78 1013.1
20260905092712 78 253 0.0 0.0 0.00 0.00 0.00 78 1013.2
20260905092207 78 253 0.0 0.0 0.00 0.00 0.00 78 1013.1
20260905091707 78 253 0.0 0.0 0.00 0.00 0.00 78 1013.1
20260905091206 78 253 0.0 0.0 0.00 0.00 0.00 78 1013.0
20260905090928 78 253 0.0 0.0 0.00 0.00 0.00 78 1013.1
20260905090209 78 253 0.0 0.0 0.00 0.00 0.00 78 1013.1
20260905085659 78 253 0.0 0.0 0.00 0.00 0.00 78 1013.2
20260905085159 78 253 0.0 0.0 0.00 0.00 0.00 78 1013.2
20260905084703 78 253 0.0 0.0 0.00 0.00 0.00 77 1013.2
20260905084153 78 253 0.0 0.0 0.00 0.00 0.00 77 1013.2
20260905083653 78 253 0.0 0.0 0.00 0.00 0.00 76 1013.2
20260905083156 79 253 0.0 0.0 0.00 0.00 0.00 76 1013.2
20260905082651 79 253 0.0 0.0 0.00 0.00 0.00 76 1013.3
20260905082151 79 253 0.0 0.0 0.00 0.00 0.00 75 1013.3
20260905081647 79 253 0.0 0.0 0.00 0.00 0.00 75 1013.3
20260905081145 79 253 0.0 0.0 0.00 0.00 0.00 75 1013.3
20260905080645 80 253 0.0 0.0 0.00 0.00 0.00 73 1013.3
20260905080141 80 253 0.0 0.0 0.00 0.00 0.00 72 1013.3
20260905075640 80 253 0.0 0.0 0.00 0.00 0.00 73 1013.3
20260905075139 81 253 0.0 0.0 0.00 0.00 0.00 72 1013.4
20260905074636 81 253 0.0 0.0 0.00 0.00 0.00 72 1013.3
20260905074133 81 253 0.0 0.0 0.00 0.00 0.00 72 1013.3
20260905073633 81 253 0.0 0.0 0.00 0.00 0.00 72 1013.2
20260905073129 81 253 0.0 0.0 0.00 0.00 0.00 72 1013.2
20260905072845 81 253 0.0 0.0 0.00 0.00 0.00 72 1013.3
20260905072127 81 253 0.0 0.0 0.00 0.00 0.00 71 1013.4
20260905071622 81 253 0.0 0.0 0.00 0.00 0.00 71 1013.5
20260905071121 81 253 0.0 0.0 0.00 0.00 0.00 71 1013.4
20260905070621 82 253 0.0 0.0 0.00 0.00 0.00 71 1013.4
20260905070118 81 253 0.0 2.0 0.00 0.00 0.00 71 1013.4
20260905065615 81 253 0.0 2.0 0.00 0.00 0.00 71 1013.3
20260905065116 81 242 1.0 2.0 0.00 0.00 0.00 71 1013.3
20260905064611 81 242 0.0 2.0 0.00 0.00 0.00 71 1013.3
20260905064109 81 242 0.0 2.0 0.00 0.00 0.00 72 1013.4
20260905063609 81 274 0.0 0.0 0.00 0.00 0.00 72 1013.4
20260905063104 80 9 0.0 0.0 0.00 0.00 0.00 73 1013.5
20260905062603 80 9 0.0 0.0 0.00 0.00 0.00 74 1013.5
20260905062103 80 9 0.0 0.0 0.00 0.00 0.00 74 1013.6
20260905061821 80 87 0.0 0.0 0.00 0.00 0.00 74 1013.6
20260905061057 80 87 0.0 0.0 0.00 0.00 0.00 74 1013.6
20260905060557 79 87 0.0 0.0 0.00 0.00 0.00 74 1013.7
20260905060053 79 87 0.0 0.0 0.00 0.00 0.00 74 1013.8
20260905055551 79 87 0.0 0.0 0.00 0.00 0.00 74 1013.7
20260905055051 80 87 0.0 0.0 0.00 0.00 0.00 73 1013.8
20260905054546 80 87 0.0 0.0 0.00 0.00 0.00 72 1013.8
20260905054045 81 87 0.0 0.0 0.00 0.00 0.00 72 1013.9
20260905053545 81 87 0.0 0.0 0.00 0.00 0.00 72 1013.9
20260905053043 80 87 0.0 0.0 0.00 0.00 0.00 72 1013.9
20260905052546 80 87 0.0 0.0 0.00 0.00 0.00 73 1013.8
20260905052306 80 87 0.0 0.0 0.00 0.00 0.00 74 1013.8
20260905051537 79 87 0.0 0.0 0.00 0.00 0.00 74 1013.7
20260905051530 80 105 0.0 0.0 0.00 0.00 0.00 73 1013.6
20260905050531 81 105 0.0 0.0 0.00 0.00 0.00 71 1013.8
20260905050031 82 105 0.0 0.0 0.00 0.00 0.00 70 1013.6
20260905045535 82 105 0.0 0.0 0.00 0.00 0.00 70 1013.6
20260905045026 82 105 0.0 0.0 0.00 0.00 0.00 71 1013.6
20260905044525 82 105 0.0 0.0 0.00 0.00 0.00 70 1013.6
20260905044028 82 105 0.0 0.0 0.00 0.00 0.00 70 1013.5
20260905043738 83 105 0.0 0.0 0.00 0.00 0.00 68 1013.5
20260905043019 84 105 0.0 0.0 0.00 0.00 0.00 66 1013.5
20260905042523 84 105 0.0 0.0 0.00 0.00 0.00 66 1013.4
20260905042232 84 105 0.0 0.0 0.00 0.00 0.00 66 1013.4
20260905041731 84 105 0.0 0.0 0.00 0.00 0.00 66 1013.4
20260905041017 84 105 0.0 0.0 0.00 0.00 0.00 66 1013.5
20260905040732 84 105 0.0 0.0 0.00 0.00 0.00 67 1013.4
20260905040007 84 105 0.0 0.0 0.00 0.00 0.00 66 1013.4
20260905035731 84 105 0.0 0.0 0.00 0.00 0.00 66 1013.3
20260905035000 84 105 0.0 0.0 0.00 0.00 0.00 66 1013.4
20260905034501 84 105 0.0 0.0 0.00 0.00 0.00 67 1013.5
20260905034005 84 105 0.0 0.0 0.00 0.00 0.00 67 1013.4
20260905033459 83 105 0.0 0.0 0.00 0.00 0.00 68 1013.5
20260905033000 83 105 0.0 0.0 0.00 0.00 0.00 69 1013.5
20260905032458 82 105 0.0 0.0 0.00 0.00 0.00 71 1013.5
20260905031959 81 105 0.0 0.0 0.00 0.00 0.00 72 1013.6
20260905031458 81 105 0.0 2.0 0.00 0.00 0.00 73 1013.6
20260905030959 81 105 0.0 2.0 0.00 0.00 0.00 73 1013.6
20260905030727 81 105 1.0 2.0 0.00 0.00 0.00 73 1013.7
20260905025953 82 105 1.0 2.0 0.00 0.00 0.00 72 1013.6
20260905025453 82 105 1.0 2.0 0.00 0.00 0.00 72 1013.5
20260905024952 82 88 0.0 1.0 0.00 0.00 0.00 72 1013.5
20260905024449 82 88 1.0 1.0 0.00 0.00 0.00 72 1013.6
20260905024209 82 88 1.0 1.0 0.00 0.00 0.00 72 1013.5
20260905023449 82 88 1.0 1.0 0.00 0.00 0.00 71 1013.5
20260905022949 83 88 1.0 2.0 0.00 0.00 0.00 71 1013.5
20260905022448 83 88 1.0 2.0 0.00 0.00 0.00 70 1013.5
20260905021949 84 88 1.0 2.0 0.00 0.00 0.00 69 1013.5
20260905021449 84 88 1.0 2.0 0.00 0.00 0.00 68 1013.3
20260905020946 84 88 1.0 2.0 0.00 0.00 0.00 68 1013.3
20260905020447 84 88 1.0 2.0 0.00 0.00 0.00 67 1013.3
20260905015947 85 88 0.0 2.0 0.00 0.00 0.00 66 1013.3
20260905015447 85 88 0.0 0.0 0.00 0.00 0.00 66 1013.3
20260905015206 85 88 0.0 2.0 0.00 0.00 0.00 66 1013.2
20260905014446 85 88 1.0 2.0 0.00 0.00 0.00 65 1013.2
20260905013947 85 88 1.0 2.0 0.00 0.00 0.00 65 1013.1
20260905013451 85 88 1.0 2.0 0.00 0.00 0.00 66 1013.1
20260905012941 85 88 1.0 2.0 0.00 0.00 0.00 66 1013.0
20260905012441 85 75 1.0 2.0 0.00 0.00 0.00 65 1013.0
20260905012206 86 33 1.0 2.0 0.00 0.00 0.00 64 1013.0
20260905011437 87 290 0.0 2.0 0.00 0.00 0.00 63 1012.9
20260905010937 88 290 0.0 1.0 0.00 0.00 0.00 61 1013.0
20260905010653 88 290 0.0 0.0 0.00 0.00 0.00 60 1013.0
20260905005930 89 290 0.0 0.0 0.00 0.00 0.00 60 1012.9
20260905005431 89 290 0.0 0.0 0.00 0.00 0.00 59 1013.0
20260905004927 89 290 0.0 0.0 0.00 0.00 0.00 59 1012.8
20260905004427 90 290 0.0 0.0 0.00 0.00 0.00 59 1012.8
20260905003923 90 290 0.0 0.0 0.00 0.00 0.00 58 1012.9
20260905003423 91 290 0.0 0.0 0.00 0.00 0.00 56 1012.8
20260905002923 91 290 0.0 1.0 0.00 0.00 0.00 56 1012.8
20260905002905 92 290 0.0 1.0 0.00 0.00 0.00 55 1012.8
20260905001918 93 290 0.0 1.0 0.00 0.00 0.00 54 1012.7
20260905001638 94 290 0.0 2.0 0.00 0.00 0.00 52 1012.6
20260905000915 95 271 1.0 4.0 0.00 0.00 0.00 50 1012.5
20260905000639 95 279 1.0 4.0 0.00 0.00 0.00 49 1012.6
20260904235915 96 281 1.0 4.0 0.00 0.00 0.00 48 1012.7
20260904235903 96 292 1.0 4.0 0.00 0.00 0.00 48 1012.6
20260904234914 96 269 2.0 4.0 0.00 0.00 0.00 47 1012.6